Regional Weather Roundup
Issued by NWS New Orleans/Baton Rouge, LA

Current Version | Previous Version | Text Only | Print | Product List | Glossary On
Versions: 1 2 3 4 5 6 7 8 9 10 11 12 13 14 15 16 17 18 19 20 21 22 23 24 25 26 27 28 29 30 31 32 33 34 35 36 37 38 39 40 41 42 43 44 45 46 47 48 49 50
000
ASUS44 KLIX 300612
RWRLIX
NEW ORLEANS REGIONAL WEATHER ROUNDUP
NATIONAL WEATHER SERVICE NEW ORLEANS LA
100 AM CDT THU JUL 30 2015

NOTE: "FAIR" INDICATES FEW OR NO CLOUDS BELOW 12,000 FEET WITH NO
      SIGNIFICANT WEATHER AND/OR OBSTRUCTIONS TO VISIBILITY.
      SKY/WX - SKY CONDITION AND SIGNIFICANT WEATHER.
      TMP - AIR TEMPERATURE.     DP    - DEWPOINT TEMPERATURE.
      RH  - RELATIVE HUMIDITY.   PRES  - PRESSURE.
      HI  - HEAT INDEX.          WCI   - WIND CHILL INDEX.

*  THESE STATIONS ARE NOT NWS OR FAA STATIONS AND ARE NOT UNDER
   NWS QUALITY CONTROL.

LAZ038-040-048-061>063-065>067-069-300700-
SOUTHEAST LOUISIANA

CITY           SKY/WX    TMP DP  RH WIND       PRES   REMARKS
N.O. AUDUBON     N/A     79  79  98 MISG        N/A
6HR MIN TEMP:  76; 6HR MAX TEMP:  79; 6HR PCP:  0.63;

N.O. INTL ARPT CLOUDY    79  75  87 NW3       29.99S
6HR MIN TEMP:  77; 6HR MAX TEMP:  88; 6HR PCP:  0.29;

N.O. LAKEFRONT CLOUDY    82  76  81 NW10      29.99S
6HR MIN TEMP:  75; 6HR MAX TEMP:  83; 6HR PCP:  1.54;

N.O. DOWNTOWN*   N/A     81  75  83 CALM      30.00S
6HR MIN TEMP:  75; 6HR MAX TEMP:  81; 6HR PCP:  1.00;

RESERVE*         N/A     79  76  91 CALM      29.99F
6HR MIN TEMP:  78; 6HR MAX TEMP:  89; 6HR PCP:  0.18;

SLIDELL        MOCLDY    76  76 100 N3        30.00S
6HR MIN TEMP:  74; 6HR MAX TEMP:  77; 6HR PCP:  0.06;

BATON ROUGE    CLOUDY    79  76  90 W6        30.00F
6HR MIN TEMP:  79; 6HR MAX TEMP:  88; 6HR PCP: TRACE;

BOOTHVILLE     MOCLDY    84  77  79 N7        29.99R
6HR MIN TEMP:  83; 6HR MAX TEMP:  89;

BELLE CHASSE   CLOUDY    77  75  93 CALM      29.99S
6HR MIN TEMP:  75; 6HR MAX TEMP:  77; 6HR PCP:  0.19;

BOGALUSA*        N/A     76  72  87 CALM      30.03F
6HR MIN TEMP:  76; 6HR MAX TEMP:  79; 6HR PCP:  0.75;

GALLIANO*      NOT AVBL
NEW ROADS*       N/A    N/A N/A N/A W5        30.02F
GONZALES*        N/A     79  79  99 CALM      29.98S
6HR MIN TEMP:  79; 6HR MAX TEMP:  83;

HAMMOND*       CLOUDY    75  72  88 CALM      30.01F
HOUMA*         CLOUDY    76  75  95 CALM      30.00S
6HR MIN TEMP:  76; 6HR MAX TEMP:  86;

PORT FOURCHON* NOT AVBL

$$

MSZ070-080>082-300700-
SOUTHERN MISSISSIPPI

CITY           SKY/WX    TMP DP  RH WIND       PRES   REMARKS
MCCOMB         MOCLDY    77  75  93 CALM      30.03F
6HR MIN TEMP:  76; 6HR MAX TEMP:  84; 6HR PCP:  0.05;

GULFPORT       PTCLDY    77  74  90 N5        29.99F
6HR MIN TEMP:  75; 6HR MAX TEMP:  83; 6HR PCP:  0.88;

BILOXI         PTCLDY    77  75  96 N6        30.00S
6HR MIN TEMP:  77; 6HR MAX TEMP:  82; 6HR PCP: TRACE;

PASCAGOULA     PTCLDY    77  75  93 N3        30.00F
6HR MIN TEMP:  77; 6HR MAX TEMP:  83;


$$

COASTAL OBSERVATIONS
LAKE AND NEARSHORE STATIONS

STATION/POSITION TIME  TEMP    WIND        PRES    WAVE
                       AIR SEA DIR/SP/G            HT/PER
                 (UTC) (F)     (DEG/KT/KT) (MB)    (FT/S)
PASCAGOULA       0500   80                   N/A
WAVELAND YACHT   0500   78                   N/A
GRAND ISLE       0500   82                   N/A
SHELL BEACH      0500   81                   N/A

OFFSHORE STATIONS

STATION/POSITION TIME  TEMP    WIND        PRES    WAVE
                       AIR SEA DIR/SP/G            HT/PER
                 (UTC) (F)     (DEG/KT/KT) (MB)    (FT/S)
64 S DAUPHIN ISL 0550   88 88  280/ 10/ 12 1015.3    2/ 3

$$



USA.gov is the U.S. government's official web portal to all federal, state and local government web resources and services.